SV2MJJ Weather Reports


Display with metric or nautical units.
time (UTC)temp
F
wind
direction
speed
MPH
gust
MPH
rain 1hr
in
rain 24hr
in
rain mn
in
humidity
%
barometer
mb
20210415144616 65 179 0.0 0.0 0.00 0.00 0.00 33 1009.2
20210415144052 65 180 0.0 0.0 0.00 0.00 0.00 33 1009.2
20210415143654 65 184 0.0 0.0 0.00 0.00 0.00 33 1009.1
20210415143400 65 165 0.0 0.0 0.00 0.00 0.00 33 1009.2
20210415143036 65 176 0.0 0.0 0.00 0.00 0.00 33 1009.2
20210415142705 65 176 0.0 0.0 0.00 0.00 0.00 33 1009.1
20210415141536 65 162 0.0 0.0 0.00 0.00 0.00 32 1009.1
20210415141054 65 171 0.0 0.0 0.00 0.00 0.00 33 1009.3
20210415140542 65 180 0.0 0.0 0.00 0.00 0.00 33 1009.4
20210415135917 66 182 0.0 0.0 0.00 0.00 0.00 32 1009.3
20210415134536 66 129 0.0 0.0 0.00 0.00 0.00 31 1009.4
20210415134059 66 154 0.0 0.0 0.00 0.00 0.00 32 1009.4
20210415133538 66 157 0.0 0.0 0.00 0.00 0.00 32 1009.4
20210415133246 65 159 0.0 0.0 0.00 0.00 0.00 33 1009.3
20210415131925 65 163 0.0 0.0 0.00 0.00 0.00 32 1009.4
20210415131105 66 167 0.0 0.0 0.00 0.00 0.00 32 1009.5
20210415130616 66 122 0.0 0.0 0.00 0.00 0.00 33 1009.6
20210415130058 65 122 0.0 0.0 0.00 0.00 0.00 33 1009.6
20210415125941 64 134 0.0 0.0 0.00 0.00 0.00 33 1009.7
20210415124649 65 165 0.0 0.0 0.00 0.00 0.00 32 1009.6
20210415124106 65 134 0.0 0.0 0.00 0.00 0.00 32 1009.8
20210415123634 65 134 0.0 0.0 0.00 0.00 0.00 33 1010.0
20210415121714 65 159 0.0 0.0 0.00 0.00 0.00 32 1010.0
20210415121116 65 145 0.0 0.0 0.00 0.00 0.00 33 1010.2
20210415120557 65 143 0.0 0.0 0.00 0.00 0.00 33 1010.3
20210415115915 64 123 0.0 0.0 0.00 0.00 0.00 35 1010.4
20210415114552 64 126 0.0 0.0 0.00 0.00 0.00 35 1010.5
20210415114051 64 137 0.0 0.0 0.00 0.00 0.00 35 1010.4
20210415113614 63 140 0.0 0.0 0.00 0.00 0.00 35 1010.6
20210415113452 62 128 0.0 0.0 0.00 0.00 0.00 36 1010.8
20210415113040 63 140 0.0 0.0 0.00 0.00 0.00 36 1010.7
20210415111558 63 140 0.0 0.0 0.00 0.00 0.00 36 1010.9
20210415111123 63 140 0.0 0.0 0.00 0.00 0.00 37 1010.9
20210415110536 62 132 0.0 0.0 0.00 0.00 0.00 37 1010.9
20210415110042 62 131 0.0 0.0 0.00 0.00 0.00 36 1010.9
20210415105849 62 103 0.0 0.0 0.00 0.00 0.00 38 1011.0
20210415104624 62 118 0.0 0.0 0.00 0.00 0.00 38 1011.1
20210415104051 62 127 0.0 0.0 0.00 0.00 0.00 37 1011.2
20210415103453 62 136 0.0 0.0 0.00 0.00 0.00 38 1011.3
20210415102533 61 136 0.0 0.0 0.00 0.00 0.00 39 1011.4
20210415101552 60 99 0.0 0.0 0.00 0.00 0.00 40 1011.4
20210415101046 59 87 0.0 0.0 0.00 0.00 0.00 41 1011.5
20210415100619 59 86 0.0 0.0 0.00 0.00 0.00 40 1011.6
20210415100024 59 91 0.0 0.0 0.00 0.00 0.00 40 1011.8
20210415094741 60 115 0.0 0.0 0.00 0.00 0.00 39 1011.8
20210415094108 60 128 0.0 0.0 0.00 0.00 0.00 40 1011.9
20210415093549 60 128 0.0 0.0 0.00 0.00 0.00 40 1011.9
20210415093231 59 130 0.0 0.0 0.00 0.00 0.00 41 1011.8
20210415092726 59 130 0.0 0.0 0.00 0.00 0.00 41 1012.1
20210415091546 59 123 0.0 0.0 0.00 0.00 0.00 41 1012.1
20210415091115 59 122 0.0 0.0 0.00 0.00 0.00 41 1012.3
20210415090553 59 134 0.0 0.0 0.00 0.00 0.00 41 1012.2
20210415090058 58 134 0.0 0.0 0.00 0.00 0.00 43 1012.1
20210415085841 58 138 0.0 0.0 0.00 0.00 0.00 44 1012.2
20210415084633 58 147 0.0 0.0 0.00 0.00 0.00 44 1012.2
20210415084058 58 189 0.0 0.0 0.00 0.00 0.00 44 1012.2
20210415083652 57 192 0.0 0.0 0.00 0.00 0.00 44 1012.2
20210415083433 57 189 0.0 0.0 0.00 0.00 0.00 43 1012.2
20210415083104 58 168 0.0 0.0 0.00 0.00 0.00 43 1012.3
20210415082747 58 174 0.0 0.0 0.00 0.00 0.00 43 1012.4
20210415081611 58 176 0.0 0.0 0.00 0.00 0.00 43 1012.6
20210415081042 58 177 0.0 0.0 0.00 0.00 0.00 44 1012.5
20210415080637 57 179 0.0 0.0 0.00 0.00 0.00 43 1012.5
20210415080047 56 188 0.0 0.0 0.00 0.00 0.00 43 1012.5
20210415074624 56 188 0.0 0.0 0.00 0.00 0.00 43 1012.6
20210415074054 56 191 0.0 0.0 0.00 0.00 0.00 44 1012.7
20210415073551 56 192 0.0 0.0 0.00 0.00 0.00 45 1012.7
20210415073120 55 198 0.0 0.0 0.00 0.00 0.00 46 1012.7
20210415072914 54 206 0.0 0.0 0.00 0.00 0.00 47 1012.7
20210415072332 54 208 0.0 0.0 0.00 0.00 0.00 47 1012.7
20210415071404 54 208 0.0 0.0 0.00 0.00 0.00 47 1012.7
20210415070824 53 208 0.0 0.0 0.00 0.00 0.00 47 1012.7
20210415070248 54 210 0.0 0.0 0.00 0.00 0.00 46 1012.6
20210415065854 53 209 0.0 0.0 0.00 0.00 0.00 48 1012.6
20210415065457 53 211 0.0 0.0 0.00 0.00 0.00 48 1012.6
20210415064542 53 199 0.0 0.0 0.00 0.00 0.00 49 1012.6
20210415064044 53 184 0.0 0.0 0.00 0.00 0.00 50 1012.6
20210415063548 53 215 0.0 0.0 0.00 0.00 0.00 51 1012.5
20210415063142 52 226 0.0 0.0 0.00 0.00 0.00 52 1012.5
20210415063022 52 221 0.0 0.0 0.00 0.00 0.00 51 1012.5
20210415062453 52 263 0.0 0.0 0.00 0.00 0.00 52 1012.6
20210415061622 52 276 0.0 0.0 0.00 0.00 0.00 54 1012.5
20210415061040 51 276 0.0 0.0 0.00 0.00 0.00 53 1012.5
20210415060552 51 276 0.0 0.0 0.00 0.00 0.00 54 1012.5
20210415060045 51 276 0.0 0.0 0.00 0.00 0.00 55 1012.5
20210415055834 51 276 0.0 0.0 0.00 0.00 0.00 56 1012.5
20210415055237 50 276 0.0 0.0 0.00 0.00 0.00 56 1012.6
20210415054547 50 276 0.0 0.0 0.00 0.00 0.00 57 1012.6
20210415054053 50 276 0.0 0.0 0.00 0.00 0.00 58 1012.4
20210415053532 49 275 0.0 0.0 0.00 0.00 0.00 58 1012.5
20210415053150 49 276 0.0 0.0 0.00 0.00 0.00 59 1012.5
20210415052851 49 276 0.0 0.0 0.00 0.00 0.00 59 1012.4
20210415052455 48 276 0.0 0.0 0.00 0.00 0.00 59 1012.4
20210415051544 47 275 0.0 0.0 0.00 0.00 0.00 59 1012.4
20210415051034 47 276 0.0 0.0 0.00 0.00 0.00 59 1012.3
20210415050546 46 276 0.0 0.0 0.00 0.00 0.00 59 1012.3
20210415050058 46 268 0.0 0.0 0.00 0.00 0.00 59 1012.3
20210415045837 46 273 0.0 0.0 0.00 0.00 0.00 59 1012.2
20210415045349 45 274 0.0 0.0 0.00 0.00 0.00 60 1012.1
20210415044554 44 273 0.0 0.0 0.00 0.00 0.00 60 1012.1
20210415044044 44 279 0.0 0.0 0.00 0.00 0.00 60 1012.1
20210415043557 44 272 0.0 0.0 0.00 0.00 0.00 60 1012.1
20210415043043 44 272 0.0 0.0 0.00 0.00 0.00 60 1012.1
20210415042943 43 269 0.0 0.0 0.00 0.00 0.00 60 1012.1
20210415042710 44 270 0.0 0.0 0.00 0.00 0.00 60 1012.1
20210415041556 44 272 0.0 0.0 0.00 0.00 0.00 60 1012.0
20210415041056 44 267 0.0 0.0 0.00 0.00 0.00 60 1012.1
20210415040552 43 267 0.0 0.0 0.00 0.00 0.00 61 1012.0
20210415040052 43 262 0.0 0.0 0.00 0.00 0.00 61 1012.0
20210415035900 44 278 0.0 0.0 0.00 0.00 0.00 61 1011.8
20210415035428 44 275 0.0 0.0 0.00 0.00 0.00 61 1011.9
20210415034547 44 271 0.0 0.0 0.00 0.00 0.00 62 1011.9
20210415034055 44 275 0.0 0.0 0.00 0.00 0.00 62 1012.0
20210415033536 44 270 0.0 0.0 0.00 0.00 0.00 63 1011.9
20210415033046 44 287 0.0 0.0 0.00 0.00 0.00 62 1011.9
20210415032815 44 290 0.0 0.0 0.00 0.00 0.00 61 1012.0
20210415032336 44 292 0.0 0.0 0.00 0.00 0.00 61 1011.9
20210415031542 44 294 0.0 0.0 0.00 0.00 0.00 62 1012.0
20210415031050 44 292 0.0 0.0 0.00 0.00 0.00 62 1012.0
20210415030540 44 294 0.0 0.0 0.00 0.00 0.00 62 1012.0
20210415030108 44 292 0.0 0.0 0.00 0.00 0.00 61 1011.9
20210415025658 45 289 0.0 0.0 0.00 0.00 0.00 61 1012.1
20210415024620 45 289 0.0 0.0 0.00 0.00 0.00 62 1011.9
20210415024056 45 289 0.0 0.0 0.00 0.00 0.00 63 1011.8
20210415023551 45 289 0.0 0.0 0.00 0.00 0.00 63 1011.8
20210415023043 45 289 0.0 0.0 0.00 0.00 0.00 63 1011.7
20210415022742 45 289 0.0 0.0 0.00 0.00 0.00 63 1011.7
20210415022255 45 288 0.0 0.0 0.00 0.00 0.00 62 1011.6
20210415021600 45 288 0.0 0.0 0.00 0.00 0.00 62 1011.5
20210415021036 45 288 0.0 0.0 0.00 0.00 0.00 61 1011.4
20210415020633 45 288 0.0 0.0 0.00 0.00 0.00 61 1011.4
20210415020226 45 287 0.0 0.0 0.00 0.00 0.00 60 1011.5
20210415015856 45 286 0.0 0.0 0.00 0.00 0.00 60 1011.5
20210415014639 46 284 0.0 0.0 0.00 0.00 0.00 59 1011.4
20210415014106 46 282 0.0 0.0 0.00 0.00 0.00 59 1011.5
20210415013631 46 280 0.0 0.0 0.00 0.00 0.00 59 1011.4
20210415013129 46 280 0.0 0.0 0.00 0.00 0.00 59 1011.4
20210415011624 46 280 0.0 0.0 0.00 0.00 0.00 59 1011.4
20210415010123 46 277 0.0 0.0 0.00 0.00 0.00 60 1011.2
20210415005720 46 279 0.0 0.0 0.00 0.00 0.00 60 1011.2
20210415004625 46 279 0.0 0.0 0.00 0.00 0.00 60 1011.3
20210415004105 46 265 0.0 0.0 0.00 0.00 0.00 60 1011.2
20210415003536 47 261 0.0 0.0 0.00 0.00 0.00 59 1011.2
20210415003044 47 248 0.0 0.0 0.00 0.00 0.00 60 1011.3
20210415001815 47 240 0.0 0.0 0.00 0.00 0.00 59 1011.3
20210415001246 47 228 0.0 0.0 0.00 0.00 0.00 59 1011.4
20210415001020 48 200 0.0 0.0 0.00 0.00 0.00 58 1011.4
20210415000653 48 198 0.0 0.0 0.00 0.00 0.00 58 1011.5
20210415000113 49 190 0.0 0.0 0.00 0.00 0.00 58 1011.5
20210414235904 49 189 0.0 0.0 0.00 0.00 0.00 57 1011.5
20210414234545 50 188 0.0 0.0 0.00 0.00 0.00 57 1011.5
20210414234253 50 188 0.0 0.0 0.00 0.00 0.00 57 1011.5
20210414233536 50 188 0.0 0.0 0.00 0.00 0.00 56 1011.6
20210414233158 50 188 0.0 0.0 0.00 0.00 0.00 55 1011.6
20210414232859 50 188 0.0 0.0 0.00 0.00 0.00 55 1011.6
20210414232341 50 189 0.0 0.0 0.00 0.00 0.00 55 1011.6
20210414231544 51 189 0.0 0.0 0.00 0.00 0.00 54 1011.6
20210414231042 51 189 0.0 0.0 0.00 0.00 0.00 54 1011.5
20210414230621 51 188 0.0 0.0 0.00 0.00 0.00 54 1011.6
20210414230129 51 188 0.0 0.0 0.00 0.00 0.00 54 1011.6
20210414225915 51 188 0.0 0.0 0.00 0.00 0.00 54 1011.7
20210414225607 51 188 0.0 0.0 0.00 0.00 0.00 53 1011.6
20210414224628 51 189 0.0 0.0 0.00 0.00 0.00 53 1011.6
20210414224045 51 188 0.0 0.0 0.00 0.00 0.00 52 1011.5
20210414223551 52 188 0.0 0.0 0.00 0.00 0.00 50 1011.4
20210414223040 52 188 0.0 0.0 0.00 0.00 0.00 48 1011.5
20210414222850 53 189 0.0 0.0 0.00 0.00 0.00 47 1011.4
20210414222351 53 189 0.0 0.0 0.00 0.00 0.00 47 1011.2
20210414221542 53 195 0.0 0.0 0.00 0.00 0.00 46 1011.2
20210414221050 53 195 0.0 0.0 0.00 0.00 0.00 46 1011.1
20210414220542 53 195 0.0 0.0 0.00 0.00 0.00 45 1011.0
20210414220049 53 191 0.0 0.0 0.00 0.00 0.00 46 1011.0
20210414215846 53 194 0.0 0.0 0.00 0.00 0.00 46 1010.8
20210414215201 53 194 0.0 0.0 0.00 0.00 0.00 47 1010.8
20210414214537 53 194 0.0 0.0 0.00 0.00 0.00 47 1010.8
20210414214049 53 195 0.0 0.0 0.00 0.00 0.00 48 1010.8
20210414213542 53 196 0.0 0.0 0.00 0.00 0.00 48 1010.8
20210414213110 53 196 0.0 0.0 0.00 0.00 0.00 48 1010.6
20210414212955 54 193 0.0 0.0 0.00 0.00 0.00 47 1010.5
20210414212736 54 5 0.0 0.0 0.00 0.00 0.00 46 1010.5
20210414211554 54 6 0.0 0.0 0.00 0.00 0.00 47 1010.4
20210414211052 54 9 0.0 0.0 0.00 0.00 0.00 47 1010.3
20210414210550 53 11 0.0 0.0 0.00 0.00 0.00 48 1010.3
20210414210047 53 15 0.0 0.0 0.00 0.00 0.00 49 1010.3
20210414205815 53 15 0.0 0.0 0.00 0.00 0.00 49 1010.2
20210414205221 53 28 0.0 0.0 0.00 0.00 0.00 50 1010.2
20210414204548 53 36 0.0 0.0 0.00 0.00 0.00 50 1010.1
20210414204040 54 37 0.0 0.0 0.00 0.00 0.00 49 1010.2
20210414203545 54 37 0.0 0.0 0.00 0.00 0.00 47 1010.2
20210414203111 55 38 0.0 0.0 0.00 0.00 0.00 47 1010.2
20210414202941 55 38 0.0 0.0 0.00 0.00 0.00 46 1010.2
20210414202624 55 38 0.0 0.0 0.00 0.00 0.00 45 1010.1
20210414201554 56 38 0.0 0.0 0.00 0.00 0.00 44 1010.0
20210414201039 56 38 0.0 0.0 0.00 0.00 0.00 45 1009.9
20210414200551 56 38 0.0 0.0 0.00 0.00 0.00 44 1010.0
20210414200036 56 38 0.0 0.0 0.00 0.00 0.00 44 1010.0
20210414195850 56 38 0.0 0.0 0.00 0.00 0.00 44 1010.0
20210414195401 56 38 0.0 0.0 0.00 0.00 0.00 43 1009.9
20210414194537 57 38 0.0 0.0 0.00 0.00 0.00 43 1009.8
20210414194045 57 38 0.0 0.0 0.00 0.00 0.00 43 1009.8
20210414193550 57 38 0.0 0.0 0.00 0.00 0.00 41 1009.9
20210414193115 57 38 0.0 0.0 0.00 0.00 0.00 42 1009.6
20210414192910 58 38 0.0 0.0 0.00 0.00 0.00 41 1009.5
20210414192242 58 38 0.0 0.0 0.00 0.00 0.00 41 1009.4
20210414191555 58 37 0.0 0.0 0.00 0.00 0.00 41 1009.5
20210414191037 58 33 0.0 0.0 0.00 0.00 0.00 41 1009.3
20210414190547 58 53 0.0 0.0 0.00 0.00 0.00 41 1009.4
20210414190127 58 40 0.0 0.0 0.00 0.00 0.00 41 1009.4
20210414185920 58 38 0.0 0.0 0.00 0.00 0.00 41 1009.4
20210414185452 58 17 0.0 0.0 0.00 0.00 0.00 41 1009.2
20210414184640 58 14 0.0 0.0 0.00 0.00 0.00 41 1009.1
20210414184047 59 1 0.0 0.0 0.00 0.00 0.00 41 1008.9
20210414183622 59 39 0.0 0.0 0.00 0.00 0.00 40 1008.9
20210414183152 59 60 0.0 0.0 0.00 0.00 0.00 40 1008.7
20210414182952 59 50 0.0 0.0 0.00 0.00 0.00 40 1008.8
20210414182456 60 30 0.0 0.0 0.00 0.00 0.00 40 1008.7
20210414181556 60 1 0.0 0.0 0.00 0.00 0.00 40 1008.7
20210414181046 61 351 0.0 0.0 0.00 0.00 0.00 39 1008.5
20210414180611 61 351 0.0 0.0 0.00 0.00 0.00 38 1008.3
20210414180242 61 351 0.0 0.0 0.00 0.00 0.00 37 1008.2
20210414175926 62 351 0.0 0.0 0.00 0.00 0.00 36 1008.0
20210414175628 62 351 0.0 0.0 0.00 0.00 0.00 36 1007.9
20210414174537 62 351 0.0 0.0 0.00 0.00 0.00 36 1007.8
20210414174056 62 351 0.0 0.0 0.00 0.00 0.00 36 1007.7
20210414173534 62 310 0.0 0.0 0.00 0.00 0.00 36 1007.5
20210414173040 63 339 0.0 0.0 0.00 0.00 0.00 36 1007.4
20210414172850 63 351 0.0 0.0 0.00 0.00 0.00 35 1007.3
20210414172448 63 340 0.0 0.0 0.00 0.00 0.00 35 1007.3
20210414171549 63 334 0.0 0.0 0.00 0.00 0.00 35 1007.3
20210414171108 63 344 0.0 0.0 0.00 0.00 0.00 34 1007.3
20210414170713 64 351 0.0 0.0 0.00 0.00 0.00 33 1007.3
20210414170343 64 335 0.0 0.0 0.00 0.00 0.00 33 1007.2
20210414170026 64 324 0.0 0.0 0.00 0.00 0.00 32 1007.2
20210414165545 64 1 0.0 0.0 0.00 0.00 0.00 33 1007.1
20210414164552 64 356 0.0 0.0 0.00 0.00 0.00 33 1007.1
20210414164032 65 351 0.0 0.0 0.00 0.00 0.00 32 1007.0
20210414163552 65 334 0.0 0.0 0.00 0.00 0.00 32 1007.1
20210414163158 66 1 0.0 0.0 0.00 0.00 0.00 32 1007.0
20210414163037 66 346 0.0 0.0 0.00 0.00 0.00 31 1007.0
20210414162538 66 13 0.0 0.0 0.00 0.00 0.00 31 1007.0
20210414161559 66 351 0.0 0.0 0.00 0.00 0.00 30 1007.1
20210414161040 66 22 0.0 0.0 0.00 0.00 0.00 31 1007.1
20210414160544 67 338 0.0 0.0 0.00 0.00 0.00 30 1007.1
20210414160144 67 336 0.0 0.0 0.00 0.00 0.00 30 1007.0
20210414155909 67 7 0.0 0.0 0.00 0.00 0.00 31 1006.9
20210414155441 67 1 0.0 0.0 0.00 0.00 0.00 31 1006.8
20210414154551 68 327 0.0 0.0 0.00 0.00 0.00 31 1006.8
20210414154039 68 1 0.0 0.0 0.00 0.00 0.00 31 1006.8
20210414153545 68 329 0.0 0.0 0.00 0.00 0.00 30 1006.8
20210414153234 68 356 0.0 0.0 0.00 0.00 0.00 30 1006.8
20210414152944 68 336 0.0 0.0 0.00 0.00 0.00 30 1006.7
20210414152333 68 351 0.0 0.0 0.00 0.00 0.00 29 1006.7
20210414151541 68 331 0.0 0.0 0.00 0.00 0.00 29 1006.6
20210414151044 68 342 0.0 0.0 0.00 0.00 0.00 29 1006.4
20210414150545 68 356 0.0 0.0 0.00 0.00 0.00 29 1006.5
20210414150108 69 356 0.0 0.0 0.00 0.00 0.00 29 1006.5
20210414145909 69 356 0.0 0.0 0.00 0.00 0.00 29 1006.5
20210414145642 69 11 0.0 0.0 0.00 0.00 0.00 29 1006.3